Showing default

TRANSIT 4A, 116

Orbit data source: Space-Track

TRANSIT 4A, 116 is a payload satellite owned by USN BuWeps (US) in LEO that was launched on Thu, 29 Jun 1961 UTC via a THOR ABLESTAR launch vehicle from the Air Force Eastern Test Range (AFETR). Payload-class satellites include a variety of spacecraft equipped with specific instruments for various scientific and technological missions. These include communications satellites like Starlink; space stations such as the ISS; scientific satellites like the Hubble; Earth observation satellites from companies like Planet Labs, Umbra, and HawkEye 360; GPS; miniature CubeSats for education and research; and military/defense satellites.

Loading next visibility...
Identifier
116, 1961-015A
Orbit
LEO
Country
Flag of USUS
Related business
Manufacturer
APL
Mission
Defense Navigation
Bus & Motor
TRANSIT 4, Unknown motor
Mass
78 kg wet, 78 kg dry
Launch date (UTC)
1961-06-29 (64 years ago)
Launch vehicle
THOR ABLESTAR
Launch site
Air Force Eastern Test Range (AFETR)
Object type
Payload
Rocket body
Debris
Shape & HBR
Cyl, 0.5 m
Radar Cross Section
1.143 m², Medium (>0.1 m² and < 1m²)

Expand to show TLE details & history
Last TLE update: 16 hours ago

TLE from 16 hours ago
0 TRANSIT 4A
1 00116U 61015A   25257.48735783  .00000048  00000-0  95489-4 0  9998
2 00116  66.8091 205.4113 0068641 108.3274 252.5288 13.92259410258324
Epoch: 2025-09-14T11:41Z
TLE epoch observation values (Epoch: 2025-09-14T11:41:47.716Z)
Latitude
-0.00004°
Longitude
36.25681°
Altitude
938.157 km
Speed
7.375 km/s
True Right ascension
13h 41m 38s
True Declination
0° 00' 00"
Sunlit
Object was in daylight at epoch
Visualization orbit readout
Latitude
Unknown
Longitude
Unknown
Altitude
Unknown
Speed
Unknown
Apparent Right ascension
Unknown
Apparent Declination
Unknown
Sunlit
N/A
Visualization observer readout
Local Sidereal Time
20:28:51
Azimuth
Unknown
Elevation
Unknown
Doppler factor
Unknown
Orbital elements
Apogee altitude
969.204 km
Perigee altitude
869.026 km
Semi-major axis
7,297.252 km
Eccentricity
0.00686
Inclination
66.8091°
RAAN
205.4113°
Arg. of periapsis
108.3274°
True anomaly
251.78047°
Mean anomaly
252.5288°
Eccentric anomaly
252.15444°
Mean motion
3.4818 °/min
Orbital period
103.39 mins
BSTAR
0.000095489
Loading maneuver chart data...
Computing Atmospheric mass density...

Documentation

Showing up to 5 results
|